Location: Newark
(45.9456°N, 15.4064°E)
Time: 16:29:20
(UTC+00:00)

Courier 1B Rocket - Pass Details

Date: 25 January 2020
Orbit: 920 x 1202 km, 28.2° (Epoch: 16 February)

Event Time Altitude Azimuth Distance (km) Brightness Sun altitude
Rises 12:45:00 0° 240° (WSW) 3,829 9.0 21.6°
Reaches altitude 10° 12:48:54 10° 220° (SW) 2,813 9.2 21.3°
Maximum altitude 12:52:51 16° 185° (S) 2,326 8.6 21.0°
Drops below altitude 10° 12:56:41 10° 148° (SSE) 2,702 7.8 20.7°
Sets 13:00:19 0° 128° (SE) 3,605 8.1 20.4°
